Temp
31 31 31 32 31 31 31 31 32 32 32 32 32 32 32 33 34 35 35 36 35 35 35 35 35 35 35 35 34 34 33 32 33 33 33 33 33 33 32 32 32 31 31 31 30 30 30 30 30 30 29 29 29 29 28 29 29 28 27 28 28 27
31 31 31 31 30 30 31 31 31 31 31 32 32 33 34 34 34 35 34 35 35 35 35 35 35 35 34 34 34 34 33 33 33 33 33 33 33 32 32 31 31 30 30 30 29 28 28 29 28 29 28 28 27 27 27 27 27 26 25 25 26 26
31 31 32 31 31 31 31 31 30 31 31 31 33 33 33 34 34 35 35 35 35 35 34 34 34 34 35 34 34 34 33 33 33 33 33 33 31 32 31 30 30 29 29 28 28 28 28 27 27 27 27 27 26 25 25 25 26 25 24 25 24 25
31 31 32 32 31 30 30 30 31 31 31 32 33 34 34 34 34 35 35 35 35 34 34 34 35 35 35 34 34 33 33 32 32 32 32 31 31 31 30 30 29 29 28 28 27 27 26 26 26 26 26 26 25 25 26 25 24 24 24 24 24 24
31 31 31 31 30 30 30 30 30 31 32 33 34 34 34 35 35 35 35 35 34 34 34 34 34 34 34 33 33 32 32 31 31 32 31 30 30 30 30 29 28 27 27 27 27 26 26 26 26 26 26 26 25 25 25 25 25 25 24 24 24 24
31 31 31 31 30 31 31 31 31 32 33 33 34 34 34 34 35 34 34 33 33 33 32 32 32 32 32 32 32 31 31 31 31 31 30 30 29 29 28 27 27 26 26 25 25 25 25 25 25 25 25 25 24 24 24 24 24 24 24 24 23 23
30 30 31 31 31 32 32 32 32 32 33 34 34 34 35 34 34 33 32 31 30 30 30 30 31 30 30 30 30 30 30 30 30 30 29 29 28 28 27 26 26 26 25 25 24 24 24 24 24 24 24 24 24 24 24 24 23 23 23 23 24 25
30 31 31 32 32 32 32 32 32 32 33 34 35 34 34 34 34 33 32 31 30 30 30 30 30 30 30 29 29 29 28 28 29 29 28 28 27 26 26 25 25 26 25 24 24 24 24 24 23 23 23 23 23 23 23 23 23 23 22 22 23 22
30 30 31 32 32 33 33 33 33 33 33 34 34 34 34 34 33 33 32 32 31 30 30 30 30 30 29 29 28 28 27 27 27 27 26 27 26 25 25 25 25 25 24 24 24 24 23 23 23 23 23 22 22 22 22 22 22 22 22 22 22 22
30 30 31 31 32 32 33 33 34 34 34 34 34 34 34 33 33 32 32 32 31 30 30 30 31 30 29 28 28 27 27 27 26 26 26 26 25 25 25 25 24 24 24 24 24 24 24 23 22 22 22 22 22 22 21 22 21 21 21 21 21 21
30 30 30 31 32 32 32 33 34 34 34 35 34 34 34 34 33 32 32 31 30 30 31 31 31 30 28 27 27 27 26 26 26 26 25 25 25 25 25 25 24 24 23 23 23 23 23 23 23 23 22 22 22 21 21 21 21 21 21 20 20 20
30 30 31 30 31 31 32 32 33 34 34 34 34 34 34 33 32 32 31 30 30 31 30 31 30 29 28 27 26 26 26 26 26 25 25 25 25 25 24 24 24 24 23 23 23 23 23 22 22 26 27 26 23 21 22 22 21 21 21 21 20 20
31 30 30 30 30 31 31 32 33 33 34 34 34 34 34 33 32 31 31 30 31 30 30 29 29 28 27 27 26 26 26 25 25 25 24 24 24 24 24 24 23 23 23 23 23 22 22 22 23 28 29 29 28 23 21 21 21 21 20 20 20 20
30 30 30 30 31 31 32 32 33 33 33 34 34 34 33 32 32 31 31 31 31 30 29 29 29 28 27 26 26 26 26 25 25 24 24 24 24 24 24 23 23 23 23 23 23 22 22 21 26 29 30 30 29 26 22 21 21 21 20 20 20 20
31 31 31 32 32 32 32 33 33 33 34 34 33 33 32 32 32 31 30 31 31 30 30 30 28 28 27 26 26 26 25 25 24 24 24 23 24 23 23 23 23 23 23 22 22 22 22 21 28 30 30 30 29 28 24 21 21 21 20 20 20 20
32 33 33 33 33 33 33 33 33 33 34 34 33 32 32 32 31 31 31 31 30 30 30 29 28 27 27 27 26 25 25 24 24 24 24 24 23 23 23 23 23 23 22 22 21 21 21 21 27 30 31 30 30 29 26 22 21 20 20 20 20 20
33 33 32 33 33 33 33 33 33 32 32 33 32 33 32 31 31 31 31 30 30 30 29 29 28 27 27 26 26 25 24 24 24 24 24 23 23 22 23 23 23 23 22 21 21 21 20 21 28 31 31 30 30 30 27 22 22 20 19 19 20 20
33 33 33 34 34 33 33 33 33 32 32 32 32 31 31 31 31 31 31 30 30 30 30 29 28 28 27 26 25 24 24 24 24 24 24 24 24 25 25 24 24 23 23 23 22 21 20 21 28 30 31 31 30 30 25 22 21 19 18 18 20 20
35 35 34 34 34 34 33 34 33 33 32 31 31 30 30 30 30 30 30 30 30 30 29 29 29 28 27 26 25 24 24 24 24 24 25 24 24 24 24 24 24 24 24 23 23 22 22 21 27 31 31 31 31 29 21 21 20 19 17 17 19 19
35 35 35 34 33 34 34 34 33 32 31 30 30 30 29 29 29 30 30 30 30 29 29 30 29 28 27 26 25 25 25 25 25 26 26 24 24 24 24 24 24 24 24 23 23 23 22 21 26 30 31 31 31 27 19 19 18 17 17 16 19 20
36 35 35 34 33 34 34 33 33 32 31 30 30 30 29 29 29 30 30 30 30 30 30 30 29 29 28 27 26 26 25 25 26 26 26 25 25 24 25 24 24 23 24 24 23 23 23 22 24 29 30 31 30 26 18 18 17 16 16 18 19 21
34 33 33 33 34 34 34 33 33 31 31 30 31 30 29 30 30 31 31 31 31 30 30 30 29 30 29 28 28 27 27 27 27 27 26 26 26 25 25 24 23 22 23 23 23 23 23 22 23 26 31 31 30 28 19 18 17 16 18 19 19 19
35 34 34 35 35 34 34 34 32 31 31 31 30 30 31 32 32 31 31 31 31 30 30 30 30 30 30 30 29 29 28 28 28 27 26 25 24 24 24 23 23 22 22 23 23 22 23 23 22 24 30 31 30 29 23 19 19 19 19 18 18 18
33 33 33 34 35 34 34 34 32 32 32 31 31 32 33 33 32 32 31 31 31 30 30 30 30 30 30 30 30 28 28 28 28 27 26 25 24 23 22 21 21 21 21 21 21 22 22 23 22 23 27 30 30 30 27 21 19 20 18 17 17 18
32 33 33 33 33 34 34 33 32 32 32 31 33 34 34 33 33 32 31 31 30 30 29 30 29 29 30 29 28 28 27 27 26 25 25 24 23 22 21 21 20 20 20 20 20 21 22 22 21 23 24 29 30 30 29 25 21 24 20 17 16 17
32 32 32 32 33 33 33 33 32 32 31 32 35 34 33 33 32 32 31 30 30 29 29 28 27 28 29 29 28 28 26 26 25 25 24 24 23 22 21 21 20 20 19 18 19 20 21 21 21 22 24 26 30 30 30 27 25 25 19 18 17 19
32 31 31 31 32 33 33 33 32 31 30 34 34 33 32 32 31 30 29 29 28 27 28 27 27 27 27 27 28 27 26 26 25 24 24 23 23 22 21 21 20 19 19 19 18 17 19 20 20 21 22 24 27 30 30 29 26 26 24 19 18 19
30 30 31 30 31 32 33 33 33 31 33 35 34 33 33 31 29 28 28 27 27 27 27 26 26 26 26 26 27 27 27 26 25 25 24 23 23 22 21 21 20 19 19 19 19 18 18 19 19 19 20 23 24 26 29 29 27 25 25 21 19 20
29 29 30 30 30 31 32 32 33 34 35 34 34 33 31 29 28 28 27 27 27 27 26 26 26 26 26 26 26 26 26 26 25 24 23 23 22 22 22 21 20 19 19 19 19 19 18 17 18 18 18 20 21 22 24 25 25 25 24 21 19 20
30 30 30 30 31 31 32 32 33 34 34 33 32 31 30 29 28 27 27 27 27 27 26 26 25 26 26 25 25 25 25 25 25 23 23 23 22 21 21 21 21 20 20 19 20 19 17 16 17 17 17 18 19 20 21 22 23 23 21 20 18 19
30 30 30 31 31 30 31 32 33 33 33 33 31 31 29 29 28 28 27 27 27 27 27 26 26 26 26 25 25 26 26 25 24 24 24 25 25 24 23 22 22 22 22 22 21 19 17 16 16 17 20 19 22 19 19 19 20 21 21 20 20 14
30 30 30 32 31 30 30 31 32 33 32 32 31 30 29 29 28 27 27 27 27 27 26 26 26 26 26 25 25 24 24 25 27 27 25 25 26 27 29 28 24 24 24 23 23 22 20 18 19 24 24 24 24 24 24 23 24 24 21 21 22 14
28 29 29 31 30 30 30 31 31 32 31 31 31 30 30 29 29 28 28 27 27 27 27 26 26 26 26 26 25 24 24 23 25 30 31 29 26 26 29 30 30 29 28 25 23 24 27 25 24 25 25 25 25 25 25 24 25 25 24 24 17 11
26 27 29 31 31 30 30 30 31 31 31 31 31 30 30 30 30 29 28 28 28 28 27 27 26 26 25 25 25 24 24 23 22 23 28 29 28 28 29 30 30 30 29 29 26 23 23 26 26 26 25 25 25 25 25 25 25 25 25 25 21 11
29 30 30 31 30 30 30 30 31 31 31 30 30 30 30 30 30 30 30 29 29 28 27 27 26 26 25 25 24 24 24 23 23 22 22 25 28 29 30 30 30 30 30 29 29 28 26 25 26 26 26 25 25 25 25 25 26 26 25 25 17 11
30 29 30 29 29 29 29 30 31 31 30 30 30 30 30 30 30 31 31 30 29 28 28 27 27 26 26 26 26 25 24 24 24 24 24 22 22 23 26 28 30 30 30 29 29 28 27 27 27 26 26 26 26 26 26 25 23 26 26 23 16 12
29 29 29 29 29 28 28 29 31 31 29 29 29 29 30 30 30 31 30 29 29 30 29 28 28 27 27 26 25 25 25 25 25 25 24 23 21 21 20 21 24 27 27 26 27 29 28 27 27 27 27 27 26 26 26 26 21 19 20 20 17 12
29 30 30 29 28 28 28 29 30 29 28 28 29 29 29 30 30 30 31 31 29 30 30 29 28 28 28 27 26 26 26 25 24 24 24 24 23 22 21 21 23 24 26 26 26 27 28 27 27 27 27 27 27 27 27 19 17 17 17 17 16 12
MSLP
1018.32 1018.88 1019.56 1020.32 1020.96 1021.44 1021.68 1021.88 1022.20 1022.48 1022.76 1023.00 1023.20 1023.44 1023.72 1023.92 1024.16 1024.36 1024.64 1024.76 1024.96 1025.24 1025.44 1025.68 1025.96 1026.20 1026.44 1026.80 1027.08 1027.32 1027.60 1027.92 1028.32 1028.84 1029.20 1029.32 1029.40 1029.52 1029.68 1029.92 1030.20 1030.44 1030.60 1030.68 1030.76 1030.84 1031.00 1031.24 1031.48 1031.68 1031.92 1032.08 1032.36 1032.60 1032.84 1033.00 1033.08 1033.16 1033.28 1033.32 1033.32 1033.48
1018.04 1018.68 1019.28 1019.96 1020.68 1021.20 1021.60 1021.88 1022.20 1022.44 1022.60 1022.88 1023.16 1023.48 1023.72 1023.96 1024.12 1024.28 1024.44 1024.60 1024.80 1025.16 1025.40 1025.64 1025.84 1026.08 1026.36 1026.60 1026.80 1027.08 1027.24 1027.32 1027.68 1028.36 1029.04 1029.36 1029.44 1029.48 1029.56 1029.80 1030.12 1030.32 1030.52 1030.68 1030.84 1031.04 1031.32 1031.56 1031.80 1032.00 1032.20 1032.40 1032.60 1032.76 1032.96 1033.12 1033.16 1033.24 1033.36 1033.52 1033.60 1033.76
1017.92 1018.68 1019.32 1019.96 1020.68 1021.16 1021.52 1021.76 1022.00 1022.28 1022.52 1022.76 1022.88 1023.08 1023.36 1023.64 1023.84 1024.04 1024.28 1024.56 1024.88 1025.08 1025.36 1025.60 1025.88 1026.16 1026.40 1026.64 1026.84 1027.04 1027.20 1027.24 1027.32 1027.64 1028.32 1029.16 1029.68 1029.72 1029.72 1029.80 1029.96 1030.16 1030.36 1030.60 1030.88 1031.24 1031.56 1031.84 1032.12 1032.28 1032.40 1032.56 1032.72 1032.88 1033.00 1033.12 1033.20 1033.36 1033.64 1033.76 1033.92 1033.96
1017.92 1018.64 1019.28 1019.92 1020.48 1021.00 1021.40 1021.72 1022.04 1022.20 1022.36 1022.48 1022.64 1022.96 1023.24 1023.44 1023.72 1023.88 1024.16 1024.52 1024.84 1025.12 1025.40 1025.68 1025.96 1026.28 1026.52 1026.72 1026.92 1027.12 1027.32 1027.52 1027.60 1027.60 1028.08 1028.92 1029.52 1029.72 1029.76 1029.80 1029.92 1030.08 1030.28 1030.60 1031.04 1031.48 1031.76 1032.04 1032.24 1032.40 1032.48 1032.56 1032.68 1032.88 1033.04 1033.24 1033.40 1033.64 1033.84 1033.92 1034.04 1034.04
1017.60 1018.24 1018.88 1019.56 1020.12 1020.64 1021.16 1021.52 1021.68 1021.88 1022.08 1022.24 1022.36 1022.60 1022.88 1023.12 1023.48 1023.84 1024.16 1024.48 1024.84 1025.16 1025.52 1025.80 1026.04 1026.32 1026.56 1026.84 1027.08 1027.32 1027.48 1027.72 1027.80 1027.76 1028.08 1028.72 1029.20 1029.60 1029.72 1029.80 1029.92 1030.08 1030.36 1030.76 1031.16 1031.52 1031.84 1032.12 1032.32 1032.48 1032.52 1032.60 1032.68 1032.84 1033.12 1033.32 1033.52 1033.68 1033.84 1033.96 1034.00 1034.04
1017.44 1018.16 1018.68 1019.32 1019.84 1020.24 1020.68 1021.08 1021.44 1021.68 1021.84 1021.92 1022.12 1022.40 1022.72 1023.12 1023.44 1023.72 1024.12 1024.48 1024.88 1025.20 1025.52 1025.84 1026.16 1026.48 1026.76 1027.04 1027.24 1027.44 1027.60 1027.92 1028.04 1028.08 1028.32 1028.64 1029.04 1029.36 1029.68 1029.80 1029.92 1030.16 1030.52 1030.92 1031.28 1031.56 1031.84 1032.08 1032.32 1032.48 1032.60 1032.72 1032.80 1032.96 1033.20 1033.40 1033.56 1033.72 1033.88 1033.92 1033.96 1034.00
1017.08 1017.56 1018.12 1018.76 1019.36 1019.88 1020.36 1020.72 1021.04 1021.28 1021.44 1021.60 1021.84 1022.20 1022.52 1022.96 1023.32 1023.72 1024.12 1024.52 1024.88 1025.24 1025.56 1025.84 1026.04 1026.36 1026.64 1026.92 1027.24 1027.52 1027.80 1028.04 1028.16 1028.28 1028.44 1028.72 1029.04 1029.32 1029.52 1029.84 1030.00 1030.32 1030.68 1030.96 1031.28 1031.56 1031.80 1032.04 1032.24 1032.48 1032.68 1032.84 1032.96 1033.08 1033.24 1033.44 1033.64 1033.80 1033.84 1033.88 1033.88 1033.92
1016.80 1017.32 1017.72 1018.32 1018.84 1019.28 1019.80 1020.32 1020.68 1020.96 1021.12 1021.24 1021.48 1021.88 1022.32 1022.76 1023.20 1023.56 1024.00 1024.44 1024.76 1025.12 1025.44 1025.72 1025.96 1026.16 1026.40 1026.76 1027.12 1027.36 1027.64 1027.88 1028.00 1028.24 1028.56 1028.72 1028.96 1029.28 1029.52 1029.72 1030.04 1030.32 1030.64 1030.96 1031.24 1031.52 1031.76 1032.04 1032.24 1032.44 1032.64 1032.80 1032.92 1033.08 1033.28 1033.44 1033.64 1033.80 1033.88 1033.88 1033.88 1033.92
1016.48 1016.96 1017.48 1017.84 1018.44 1018.88 1019.32 1019.72 1020.16 1020.44 1020.68 1020.96 1021.24 1021.60 1022.04 1022.52 1022.96 1023.36 1023.76 1024.20 1024.52 1024.92 1025.24 1025.56 1025.80 1026.08 1026.32 1026.64 1026.92 1027.32 1027.64 1027.92 1028.04 1028.24 1028.48 1028.72 1028.88 1029.16 1029.48 1029.80 1030.08 1030.40 1030.64 1031.00 1031.28 1031.52 1031.76 1032.04 1032.24 1032.48 1032.60 1032.72 1032.84 1033.00 1033.24 1033.48 1033.68 1033.80 1033.84 1033.84 1033.84 1033.96
1016.32 1016.76 1017.12 1017.56 1017.96 1018.48 1018.92 1019.32 1019.60 1019.84 1020.04 1020.36 1020.80 1021.32 1021.80 1022.28 1022.68 1023.12 1023.52 1023.92 1024.24 1024.60 1024.96 1025.36 1025.68 1026.08 1026.40 1026.64 1026.96 1027.24 1027.52 1027.84 1028.00 1028.20 1028.48 1028.68 1028.88 1029.12 1029.40 1029.68 1030.00 1030.40 1030.68 1031.00 1031.28 1031.56 1031.76 1032.00 1032.24 1032.44 1032.52 1032.60 1032.76 1033.00 1033.24 1033.40 1033.56 1033.60 1033.68 1033.76 1033.92 1034.04
1015.72 1016.12 1016.52 1016.92 1017.48 1017.96 1018.44 1018.96 1019.36 1019.68 1019.96 1020.24 1020.64 1021.16 1021.56 1021.96 1022.48 1022.88 1023.24 1023.64 1023.96 1024.24 1024.68 1025.16 1025.56 1026.00 1026.44 1026.72 1026.96 1027.20 1027.44 1027.64 1027.88 1028.16 1028.44 1028.68 1028.92 1029.20 1029.48 1029.76 1030.04 1030.36 1030.72 1031.04 1031.28 1031.52 1031.76 1032.00 1032.12 1032.20 1032.32 1032.52 1032.76 1032.96 1033.12 1033.24 1033.36 1033.44 1033.60 1033.80 1033.96 1034.04
1015.68 1015.88 1016.28 1016.68 1017.00 1017.48 1018.04 1018.52 1018.88 1019.08 1019.32 1019.64 1020.12 1020.68 1021.20 1021.72 1022.16 1022.52 1022.92 1023.28 1023.60 1024.04 1024.48 1024.88 1025.32 1025.76 1026.24 1026.60 1026.80 1026.96 1027.20 1027.44 1027.76 1028.08 1028.40 1028.64 1028.92 1029.24 1029.52 1029.76 1030.04 1030.28 1030.56 1030.92 1031.24 1031.48 1031.68 1031.84 1031.92 1031.96 1032.04 1032.28 1032.56 1032.76 1032.92 1033.04 1033.24 1033.40 1033.60 1033.76 1033.88 1033.96
1015.08 1015.68 1016.12 1016.52 1017.00 1017.24 1017.60 1017.88 1018.20 1018.56 1018.96 1019.28 1019.80 1020.28 1020.80 1021.32 1021.76 1022.20 1022.52 1022.92 1023.28 1023.76 1024.24 1024.64 1025.08 1025.56 1025.96 1026.28 1026.64 1026.88 1027.08 1027.32 1027.60 1028.00 1028.32 1028.64 1028.92 1029.16 1029.44 1029.68 1029.92 1030.20 1030.48 1030.76 1031.00 1031.24 1031.44 1031.64 1031.72 1031.60 1031.72 1031.88 1032.16 1032.52 1032.76 1032.96 1033.20 1033.40 1033.56 1033.60 1033.68 1033.76
1014.88 1015.36 1015.80 1016.28 1016.68 1017.08 1017.36 1017.72 1018.04 1018.48 1018.76 1019.08 1019.52 1019.96 1020.60 1021.12 1021.48 1021.84 1022.20 1022.56 1023.00 1023.52 1023.92 1024.28 1024.76 1025.28 1025.68 1026.04 1026.36 1026.60 1026.88 1027.12 1027.48 1027.80 1028.12 1028.48 1028.80 1029.04 1029.28 1029.52 1029.68 1030.00 1030.32 1030.56 1030.80 1031.00 1031.16 1031.44 1031.44 1031.32 1031.44 1031.60 1031.84 1032.24 1032.64 1032.88 1033.12 1033.24 1033.36 1033.44 1033.48 1033.56
1014.20 1014.52 1014.88 1015.44 1016.00 1016.48 1016.80 1017.16 1017.64 1017.84 1018.12 1018.68 1019.20 1019.88 1020.44 1020.76 1021.08 1021.48 1021.92 1022.24 1022.60 1023.16 1023.64 1024.04 1024.48 1024.88 1025.36 1025.68 1025.96 1026.32 1026.64 1026.88 1027.20 1027.52 1027.84 1028.08 1028.36 1028.72 1028.96 1029.12 1029.44 1029.72 1030.04 1030.28 1030.52 1030.76 1031.00 1031.28 1031.16 1031.08 1031.20 1031.36 1031.60 1031.96 1032.44 1032.76 1032.96 1033.04 1033.16 1033.24 1033.32 1033.44
1013.92 1014.28 1014.72 1015.12 1015.56 1016.04 1016.56 1017.04 1017.28 1017.64 1018.08 1018.64 1019.24 1019.64 1020.04 1020.36 1020.80 1021.24 1021.60 1022.00 1022.32 1022.72 1023.24 1023.68 1024.20 1024.56 1024.96 1025.36 1025.76 1026.04 1026.24 1026.44 1026.60 1026.88 1027.28 1027.72 1028.12 1028.28 1028.60 1028.88 1029.12 1029.48 1029.76 1030.04 1030.32 1030.60 1030.88 1031.12 1030.96 1030.84 1030.92 1031.12 1031.32 1031.64 1032.16 1032.60 1032.76 1032.84 1032.96 1033.12 1033.24 1033.36
1013.24 1013.84 1014.32 1014.64 1015.04 1015.64 1016.32 1016.80 1017.16 1017.64 1018.12 1018.44 1018.88 1019.20 1019.60 1020.00 1020.40 1020.80 1021.12 1021.48 1021.88 1022.32 1022.76 1023.24 1023.68 1024.12 1024.56 1025.00 1025.32 1025.56 1025.72 1025.84 1026.20 1026.60 1026.88 1027.20 1027.44 1027.76 1028.00 1028.28 1028.72 1029.04 1029.44 1029.80 1030.12 1030.44 1030.68 1030.88 1030.76 1030.56 1030.64 1030.84 1031.04 1031.28 1031.80 1032.36 1032.52 1032.72 1032.92 1033.04 1033.16 1033.28
1012.52 1012.92 1013.36 1014.00 1014.80 1015.24 1015.64 1016.00 1016.64 1017.24 1017.64 1018.12 1018.44 1018.84 1019.16 1019.56 1019.96 1020.16 1020.56 1020.96 1021.32 1021.72 1022.20 1022.72 1023.16 1023.56 1024.00 1024.40 1024.80 1025.12 1025.28 1025.48 1025.64 1025.96 1026.44 1026.88 1027.24 1027.52 1027.80 1028.08 1028.32 1028.64 1029.00 1029.36 1029.76 1030.12 1030.44 1030.60 1030.40 1030.20 1030.32 1030.52 1030.80 1031.04 1031.52 1032.04 1032.36 1032.64 1032.84 1032.96 1033.08 1033.24
1011.88 1012.40 1013.12 1013.80 1014.20 1014.68 1015.00 1015.48 1016.08 1016.48 1017.08 1017.60 1017.92 1018.40 1018.84 1019.16 1019.40 1019.56 1019.84 1020.24 1020.72 1021.24 1021.76 1022.16 1022.64 1023.00 1023.44 1023.84 1024.28 1024.56 1024.76 1025.04 1025.36 1025.68 1026.00 1026.40 1026.56 1026.88 1027.16 1027.36 1027.76 1028.16 1028.64 1029.04 1029.40 1029.64 1029.96 1030.24 1029.96 1029.80 1029.96 1030.24 1030.52 1030.84 1031.48 1031.84 1032.28 1032.52 1032.76 1032.92 1033.00 1033.12
1011.68 1012.24 1012.76 1013.28 1013.80 1014.04 1014.64 1015.24 1015.88 1016.44 1016.92 1017.36 1017.76 1018.16 1018.44 1018.72 1018.68 1018.96 1019.44 1019.88 1020.32 1020.84 1021.24 1021.60 1022.00 1022.44 1022.92 1023.32 1023.52 1023.72 1024.08 1024.48 1024.84 1025.04 1025.20 1025.52 1025.92 1026.44 1026.76 1027.16 1027.76 1028.12 1028.36 1028.68 1028.92 1029.08 1029.40 1029.68 1029.60 1029.44 1029.64 1030.00 1030.24 1030.64 1031.28 1031.68 1032.12 1032.44 1032.68 1032.84 1032.88 1032.96
1010.84 1011.44 1012.12 1012.76 1013.24 1013.68 1014.24 1014.80 1015.40 1015.92 1016.28 1016.80 1017.20 1017.52 1017.76 1017.76 1018.00 1018.52 1018.92 1019.40 1019.92 1020.36 1020.80 1021.24 1021.60 1021.92 1022.32 1022.60 1022.80 1023.16 1023.56 1023.88 1024.08 1024.52 1025.16 1025.60 1025.96 1026.24 1026.64 1027.24 1027.56 1027.84 1028.12 1028.28 1028.52 1028.84 1029.08 1029.28 1029.36 1029.24 1029.36 1029.64 1029.88 1030.36 1031.08 1031.52 1031.96 1032.36 1032.48 1032.60 1032.68 1032.72
1010.92 1011.60 1012.00 1012.40 1012.60 1013.08 1013.72 1014.32 1014.96 1015.36 1015.68 1016.08 1016.48 1016.76 1016.60 1016.80 1017.44 1018.08 1018.68 1019.12 1019.52 1020.00 1020.52 1020.80 1021.12 1021.36 1021.60 1021.88 1022.36 1022.88 1023.16 1023.64 1024.24 1024.52 1024.84 1025.28 1025.60 1026.00 1026.44 1026.84 1027.16 1027.40 1027.60 1027.92 1028.36 1028.52 1028.64 1028.88 1029.12 1029.08 1029.00 1029.20 1029.40 1029.84 1030.72 1031.28 1031.72 1031.96 1032.04 1032.20 1032.28 1032.44
1010.24 1010.56 1010.84 1011.12 1011.60 1012.44 1013.08 1013.72 1014.28 1014.72 1015.00 1015.40 1015.76 1015.48 1015.52 1016.36 1017.20 1017.64 1018.04 1018.56 1019.00 1019.36 1019.68 1020.04 1020.32 1020.60 1021.00 1021.44 1021.96 1022.48 1023.04 1023.40 1023.68 1024.04 1024.44 1024.76 1025.20 1025.64 1026.08 1026.44 1026.72 1027.08 1027.36 1027.60 1027.80 1028.08 1028.24 1028.40 1028.72 1028.88 1028.72 1028.76 1028.96 1029.28 1030.12 1030.72 1031.00 1031.28 1031.56 1031.76 1031.96 1032.04
1010.20 1010.44 1010.80 1011.04 1011.52 1012.04 1012.64 1013.16 1013.68 1013.96 1014.44 1014.68 1014.48 1014.16 1015.12 1015.92 1016.24 1016.80 1017.36 1017.80 1018.16 1018.64 1019.12 1019.48 1019.88 1020.32 1020.72 1021.16 1021.72 1022.16 1022.48 1022.76 1023.16 1023.48 1023.84 1024.36 1024.76 1025.12 1025.52 1025.96 1026.36 1026.60 1026.88 1027.20 1027.48 1027.64 1027.84 1028.12 1028.36 1028.60 1028.48 1028.36 1028.60 1028.80 1029.40 1030.04 1030.40 1030.68 1031.12 1031.44 1031.60 1031.64
1010.00 1010.08 1010.36 1010.88 1011.36 1011.80 1012.16 1012.60 1012.92 1013.20 1013.48 1013.56 1012.72 1013.48 1014.56 1015.08 1015.72 1016.28 1016.80 1017.24 1017.68 1018.04 1018.40 1018.84 1019.28 1019.72 1020.08 1020.48 1020.88 1021.36 1021.76 1022.24 1022.72 1023.08 1023.60 1023.96 1024.36 1024.76 1025.12 1025.48 1025.84 1026.20 1026.48 1026.80 1027.04 1027.24 1027.44 1027.72 1028.12 1028.20 1028.20 1028.00 1028.08 1028.36 1028.76 1029.44 1030.04 1030.28 1030.72 1030.88 1031.08 1031.20
1009.56 1009.84 1010.24 1010.64 1011.00 1011.36 1011.76 1012.20 1012.52 1012.84 1013.04 1012.44 1012.48 1013.68 1014.16 1014.76 1015.20 1015.72 1016.16 1016.56 1016.88 1017.32 1017.76 1018.16 1018.60 1019.00 1019.36 1019.76 1020.28 1020.76 1021.20 1021.68 1022.12 1022.64 1023.00 1023.40 1023.80 1024.20 1024.60 1024.92 1025.32 1025.68 1025.88 1026.08 1026.36 1026.68 1026.96 1027.28 1027.60 1027.80 1027.84 1027.76 1027.64 1027.92 1028.20 1028.80 1029.44 1029.72 1030.24 1030.56 1030.72 1030.84
1008.92 1009.52 1009.96 1010.32 1010.56 1010.92 1011.20 1011.44 1011.72 1012.04 1012.20 1011.56 1012.40 1013.00 1013.60 1014.08 1014.64 1015.08 1015.48 1015.84 1016.24 1016.60 1017.04 1017.60 1018.00 1018.36 1018.72 1019.08 1019.52 1019.96 1020.40 1020.96 1021.52 1021.96 1022.24 1022.80 1023.12 1023.40 1023.72 1023.96 1024.44 1024.64 1024.80 1025.16 1025.48 1025.92 1026.36 1026.76 1027.08 1027.36 1027.44 1027.48 1027.48 1027.56 1027.80 1028.20 1028.84 1029.16 1029.64 1030.20 1030.48 1030.60
1009.28 1009.48 1009.56 1009.96 1010.16 1010.36 1010.56 1010.76 1010.92 1011.20 1010.56 1010.88 1011.80 1012.36 1012.96 1013.52 1014.08 1014.56 1014.84 1015.24 1015.64 1016.04 1016.56 1017.08 1017.40 1017.76 1018.04 1018.44 1018.72 1018.96 1019.28 1019.72 1020.28 1020.68 1021.20 1021.80 1022.12 1022.44 1022.76 1023.08 1023.56 1023.88 1024.12 1024.40 1024.72 1025.44 1025.84 1026.24 1026.60 1026.88 1027.12 1027.32 1027.44 1027.36 1027.44 1027.68 1028.16 1028.72 1029.04 1029.68 1030.20 1030.40
1009.24 1009.28 1009.44 1009.56 1010.00 1010.08 1010.08 1010.16 1010.20 1009.88 1009.88 1010.72 1011.12 1011.76 1012.32 1012.92 1013.36 1013.72 1014.20 1014.60 1015.04 1015.56 1016.00 1016.32 1016.64 1017.12 1017.60 1017.88 1018.16 1018.44 1018.72 1019.08 1019.44 1019.88 1020.32 1020.68 1021.00 1021.40 1021.76 1022.12 1022.56 1023.04 1023.52 1023.76 1023.92 1024.44 1025.16 1025.64 1026.00 1026.40 1026.76 1026.92 1027.12 1027.12 1027.20 1027.48 1027.76 1028.32 1028.84 1029.44 1029.92 1030.16
1008.72 1008.80 1009.12 1009.20 1009.48 1009.84 1009.84 1009.92 1009.84 1009.72 1009.92 1010.28 1010.76 1011.24 1011.80 1012.20 1012.60 1013.00 1013.44 1013.92 1014.40 1014.88 1015.24 1015.56 1015.84 1016.36 1016.76 1017.08 1017.40 1017.76 1018.12 1018.40 1018.60 1018.92 1018.96 1019.08 1019.44 1020.12 1020.56 1020.92 1021.36 1021.76 1022.04 1022.40 1022.88 1023.64 1024.48 1025.08 1025.40 1025.68 1025.84 1026.08 1026.20 1026.44 1026.80 1027.04 1027.40 1027.76 1028.24 1028.76 1029.36 1029.76
1008.20 1008.36 1008.60 1008.68 1008.96 1009.40 1009.60 1009.56 1009.56 1009.68 1009.92 1010.08 1010.48 1010.88 1011.32 1011.64 1012.04 1012.52 1012.92 1013.40 1013.88 1014.12 1014.48 1014.84 1015.20 1015.56 1015.92 1016.40 1016.80 1016.68 1016.64 1016.96 1017.44 1017.68 1017.92 1018.04 1018.28 1018.44 1018.72 1019.36 1019.88 1020.36 1020.68 1021.16 1021.76 1022.52 1023.36 1023.84 1024.00 1023.80 1023.88 1024.08 1024.52 1025.20 1025.92 1026.44 1026.80 1027.16 1027.68 1028.16 1028.88 1029.76
1007.48 1007.60 1007.92 1008.04 1008.40 1008.76 1009.08 1009.16 1009.24 1009.32 1009.56 1009.96 1010.40 1010.76 1011.04 1011.28 1011.80 1012.20 1012.40 1012.76 1013.12 1013.36 1013.92 1014.36 1014.72 1015.08 1015.40 1015.64 1016.00 1016.44 1016.76 1016.84 1016.88 1016.96 1017.04 1017.20 1017.68 1018.08 1018.36 1018.52 1018.68 1018.96 1019.88 1020.56 1020.72 1020.92 1020.88 1021.12 1021.04 1021.76 1022.84 1023.68 1024.24 1024.72 1025.20 1025.72 1026.24 1026.72 1027.36 1027.92 1028.36 1029.36
1007.44 1007.56 1007.64 1007.64 1007.96 1008.08 1008.16 1008.32 1008.44 1008.72 1009.04 1009.44 1009.88 1010.28 1010.56 1011.00 1011.44 1011.76 1011.92 1012.32 1012.48 1012.60 1013.04 1013.52 1013.96 1014.28 1014.68 1015.00 1015.44 1015.88 1016.20 1016.56 1016.72 1016.56 1016.64 1016.84 1017.24 1017.64 1017.84 1018.04 1018.48 1019.04 1019.36 1019.76 1020.20 1020.68 1021.04 1021.56 1022.04 1022.60 1023.12 1023.56 1023.88 1024.28 1024.80 1025.40 1025.96 1026.44 1027.00 1027.52 1028.36 1029.44
1007.12 1007.08 1006.64 1006.84 1007.28 1007.40 1007.56 1007.72 1007.80 1008.00 1008.32 1008.76 1009.20 1009.60 1009.96 1010.32 1010.64 1010.92 1011.12 1011.40 1011.60 1012.00 1012.40 1012.68 1013.04 1013.48 1014.00 1014.32 1014.68 1015.04 1015.40 1015.72 1016.08 1016.24 1016.16 1016.32 1016.76 1017.16 1017.48 1017.72 1018.04 1018.40 1018.80 1019.16 1019.64 1020.28 1020.84 1021.20 1021.68 1022.04 1022.56 1023.04 1023.44 1023.80 1024.32 1024.88 1025.36 1025.84 1026.40 1026.84 1027.52 1028.64
1005.52 1005.88 1006.08 1006.28 1006.56 1006.80 1006.96 1007.12 1007.00 1007.24 1007.60 1008.00 1008.44 1008.92 1009.24 1009.48 1009.72 1009.84 1010.12 1010.48 1010.88 1011.20 1011.56 1012.00 1012.40 1012.72 1013.08 1013.48 1013.92 1014.28 1014.60 1014.88 1015.08 1015.28 1015.68 1016.12 1016.52 1016.84 1017.08 1017.36 1017.60 1017.84 1018.16 1018.56 1019.00 1019.40 1019.80 1020.28 1020.80 1021.32 1021.84 1022.28 1022.68 1023.20 1023.68 1024.20 1024.72 1025.16 1025.68 1026.32 1027.08 1027.84
1005.40 1005.48 1005.52 1005.64 1005.84 1006.04 1006.28 1006.36 1006.12 1006.40 1006.88 1007.36 1007.80 1008.20 1008.36 1008.56 1008.72 1008.84 1009.00 1009.40 1009.80 1010.36 1010.84 1011.12 1011.32 1011.68 1012.08 1012.40 1012.84 1013.16 1013.56 1013.80 1014.04 1014.32 1014.84 1015.72 1016.44 1016.84 1016.96 1016.96 1017.00 1017.16 1017.52 1017.80 1018.20 1018.76 1019.40 1019.92 1020.36 1020.80 1021.28 1021.76 1022.24 1022.68 1023.20 1023.72 1024.24 1024.64 1024.96 1025.20 1025.80 1026.92
1005.04 1005.08 1005.00 1005.04 1005.28 1005.64 1005.80 1005.64 1005.40 1005.76 1006.36 1006.80 1007.20 1007.56 1007.80 1007.92 1008.04 1008.24 1008.28 1008.48 1008.96 1009.48 1009.76 1010.08 1010.48 1010.76 1011.12 1011.64 1012.08 1012.44 1012.88 1013.24 1013.64 1014.04 1014.44 1014.80 1015.24 1015.60 1015.84 1015.92 1016.12 1016.40 1016.80 1017.28 1017.76 1018.12 1018.64 1019.20 1019.76 1020.20 1020.64 1021.12 1021.64 1022.16 1022.72 1023.44 1024.16 1024.44 1024.64 1024.92 1025.32 1026.16
1004.60 1004.44 1004.48 1004.80 1004.96 1005.12 1005.20 1005.04 1004.96 1005.40 1005.88 1006.28 1006.64 1006.92 1007.04 1007.16 1007.36 1007.56 1007.76 1008.00 1008.44 1008.80 1009.04 1009.32 1009.60 1009.92 1010.28 1010.64 1011.00 1011.44 1011.96 1012.60 1013.28 1013.68 1013.76 1014.00 1014.36 1014.68 1015.12 1015.52 1015.76 1016.00 1016.32 1016.80 1017.28 1017.72 1018.20 1018.60 1019.04 1019.44 1019.96 1020.44 1021.00 1021.48 1022.04 1022.68 1023.12 1023.48 1023.56 1023.80 1024.24 1025.12
Wind_Speed
15 15 14 12 11 11 11 11 11 11 10 10 11 12 11 10 9 8 8 9 8 7 7 9 10 7 7 7 8 8 9 10 9 7 6 6 6 7 8 7 6 5 6 7 7 7 7 7 6 6 6 5 6 5 5 4 4 5 6 5 6 5
14 15 15 16 14 13 11 12 10 12 11 12 11 10 10 10 10 9 8 5 7 8 5 6 5 7 8 9 10 10 10 12 11 10 9 7 5 5 7 6 7 6 6 7 7 7 7 7 6 5 5 5 5 5 5 4 5 6 6 5 5 5
13 13 12 12 11 10 10 11 12 12 11 12 13 14 14 12 8 9 8 11 7 7 8 8 7 7 8 9 9 7 8 10 10 10 8 7 6 5 7 6 6 7 8 8 7 7 6 6 6 5 5 5 5 5 5 5 6 7 5 5 5 4
12 11 11 11 12 12 12 11 11 12 12 12 13 12 10 9 11 12 12 9 9 9 9 8 10 9 9 7 6 6 8 6 5 7 8 8 6 8 8 7 8 7 8 8 8 7 6 5 5 5 5 6 6 5 4 5 6 6 5 5 5 5
12 12 13 13 13 12 13 12 12 12 13 12 13 13 12 14 12 10 10 9 10 10 10 9 9 9 10 10 8 6 10 5 7 6 8 8 6 7 7 8 8 8 8 8 7 7 6 6 5 4 5 5 6 6 5 5 5 5 5 5 5 5
12 12 14 14 14 14 14 12 12 12 12 12 12 13 13 13 11 11 10 9 9 9 9 9 8 8 8 9 8 7 6 6 6 9 6 7 6 7 7 7 8 8 8 8 7 6 6 6 5 5 5 5 6 6 6 5 5 5 5 5 5 4
15 15 14 14 13 12 13 12 13 13 13 13 13 12 12 11 10 10 10 9 10 10 10 10 10 10 10 10 9 10 10 10 9 7 6 7 7 8 8 7 7 8 8 8 8 7 7 6 6 6 5 5 5 5 5 5 5 4 4 4 4 4
12 13 14 13 13 13 14 13 13 13 13 13 12 12 12 12 10 11 11 10 11 11 11 10 10 11 11 11 10 11 10 10 9 9 5 8 10 8 7 8 7 7 8 7 7 7 7 6 6 6 6 6 5 5 5 5 5 4 4 4 4 4
15 15 14 13 14 13 13 14 14 14 13 13 13 11 11 11 11 11 11 11 11 10 11 11 10 10 11 11 10 9 9 9 9 9 10 8 9 9 9 7 8 6 7 7 7 7 7 6 6 6 6 6 5 5 5 5 5 4 4 3 4 4
14 15 15 15 15 14 14 14 14 15 15 15 13 12 12 10 12 12 12 11 11 11 11 10 10 10 9 9 9 9 9 9 9 9 8 8 9 9 8 9 8 7 6 7 7 6 6 6 6 6 6 5 5 5 5 5 5 4 4 4 3 3
15 17 17 17 16 17 17 15 14 12 11 10 11 11 12 11 12 12 12 12 12 12 11 10 10 9 9 9 10 10 10 9 9 8 8 7 7 7 7 7 8 8 7 6 6 6 6 7 7 6 6 6 6 5 5 5 5 5 4 3 3 2
14 15 16 16 18 18 17 15 14 14 14 14 13 14 12 12 13 13 13 13 12 10 10 12 10 10 10 10 11 11 10 9 9 9 8 8 7 7 7 7 7 7 8 8 7 6 6 6 5 8 13 10 6 6 5 5 5 4 4 4 3 2
15 14 15 14 15 16 16 15 15 13 13 12 13 13 13 12 13 13 13 13 12 8 8 8 11 11 12 11 10 9 10 10 9 9 9 8 8 9 8 8 9 8 8 9 8 8 7 6 6 14 14 14 13 7 5 5 5 4 4 4 4 3
14 14 14 14 15 15 14 14 12 12 12 12 13 12 12 12 12 14 13 14 11 9 9 9 12 12 12 11 11 11 10 10 10 10 10 9 9 9 8 9 9 9 8 8 8 8 7 6 10 16 15 14 14 11 6 5 5 5 4 4 4 3
16 17 17 16 15 15 15 14 13 14 14 13 12 11 12 14 11 8 9 9 9 11 9 9 9 13 12 12 12 11 11 11 11 11 11 12 10 9 10 10 10 10 9 9 9 8 7 6 13 16 16 15 15 14 10 5 5 5 4 4 4 4
13 13 14 14 13 13 11 11 11 10 9 10 10 13 13 14 12 12 11 10 9 10 10 9 11 13 13 12 11 11 12 12 13 12 10 10 10 11 10 10 11 9 9 9 9 8 7 7 13 17 17 16 16 15 11 5 5 4 4 4 4 4
14 13 14 14 15 13 12 12 11 9 10 12 13 13 14 10 8 11 10 11 10 10 10 9 13 14 13 13 13 13 13 13 12 12 12 11 12 12 12 12 12 11 10 9 8 8 8 7 16 18 17 16 16 16 12 6 5 4 4 4 3 3
16 17 16 13 12 13 14 15 13 12 12 12 13 13 14 15 14 13 13 13 13 16 16 14 11 15 13 14 14 13 14 13 14 14 12 11 10 9 8 7 7 9 10 10 10 9 9 8 18 18 18 17 16 17 8 6 6 5 4 4 4 3
13 14 11 11 13 14 14 13 13 14 13 14 14 13 13 14 16 17 16 17 16 16 14 15 15 15 15 14 14 15 14 14 14 12 11 10 8 9 10 10 8 7 7 10 9 9 9 9 16 19 18 18 18 14 6 6 5 5 5 5 4 3
9 9 12 13 14 15 12 12 13 12 12 13 12 13 14 15 17 16 15 14 15 15 15 15 16 15 15 15 16 16 15 13 11 13 11 10 10 10 8 7 7 7 8 11 10 11 8 8 14 19 18 19 21 12 8 6 6 5 5 5 5 5
14 14 13 14 15 14 13 13 14 14 14 14 14 14 16 18 16 15 15 15 14 14 14 14 14 15 15 16 16 15 15 15 14 11 10 11 10 7 8 10 8 7 9 8 9 12 10 7 11 19 20 21 21 12 7 7 6 6 6 6 5 6
9 10 13 14 16 14 15 14 14 15 15 15 14 16 19 18 15 13 13 13 13 12 13 13 15 16 16 17 15 13 13 11 10 11 12 11 10 11 11 10 10 8 7 8 9 9 9 8 9 13 22 21 20 18 9 7 8 8 9 8 7 7
13 15 17 17 16 15 15 15 15 16 15 15 15 20 18 13 12 14 14 13 13 14 16 14 16 17 16 14 13 12 10 10 12 12 12 12 10 11 10 12 11 11 11 11 10 9 9 9 9 13 21 22 21 21 16 8 9 7 7 7 7 7
9 10 11 10 13 14 14 15 16 16 15 16 19 20 14 14 15 14 14 15 15 15 15 15 14 14 13 12 12 12 13 12 12 12 11 10 10 12 12 11 10 10 10 9 10 11 12 11 15 11 18 23 23 22 21 11 9 9 6 8 6 7
9 11 12 10 11 12 13 16 18 17 16 19 23 16 13 14 13 14 14 14 15 15 15 15 16 14 12 13 14 13 13 11 12 11 11 11 11 12 13 12 11 10 10 9 9 10 11 11 11 15 14 21 24 23 22 18 11 16 8 6 6 7
9 9 8 9 11 12 13 16 16 15 16 21 15 10 11 12 13 13 14 14 15 15 15 14 15 14 13 14 13 13 13 13 12 12 11 12 12 12 12 11 11 11 11 12 12 11 11 10 10 14 17 15 24 23 23 20 18 18 8 8 5 6
10 9 8 9 12 12 13 15 17 16 19 19 12 13 13 14 13 14 15 15 14 14 14 13 13 14 14 14 14 15 14 14 13 13 12 12 13 12 13 12 12 13 13 12 12 13 11 10 10 11 15 18 19 23 22 22 21 19 17 10 7 7
5 7 10 9 11 13 13 15 16 19 22 15 12 13 13 13 14 14 15 14 14 14 13 14 14 14 15 15 13 15 14 15 15 14 13 13 13 13 13 13 13 13 13 13 11 13 13 11 10 11 11 13 12 15 23 23 21 19 19 13 9 12
6 8 9 10 10 12 13 14 15 18 15 12 12 13 13 13 15 15 14 15 14 13 14 16 14 13 13 14 13 13 13 13 13 14 14 14 15 15 14 14 14 13 13 13 13 12 12 11 11 10 10 11 11 11 12 14 15 19 18 12 9 12
8 9 9 11 10 11 12 13 14 15 13 10 11 12 13 15 15 16 15 15 13 13 14 15 17 17 13 14 14 14 13 13 14 15 17 17 17 16 16 15 15 16 16 15 13 12 11 11 11 12 13 13 14 12 11 10 10 10 10 10 9 9
9 10 10 11 8 9 10 12 13 12 13 11 10 12 14 14 15 14 14 14 13 14 13 13 13 14 14 13 14 15 15 16 16 17 15 15 14 16 17 17 16 15 15 14 14 14 14 13 15 16 17 18 19 17 14 13 12 10 10 11 14 8
10 10 11 11 8 9 10 12 12 11 11 10 9 11 14 14 13 13 14 13 13 13 12 12 12 13 13 13 13 13 12 14 18 14 15 15 19 22 20 17 16 15 14 14 14 15 18 20 20 23 30 25 24 26 23 18 17 18 11 15 22 12
9 8 9 10 8 10 11 12 12 12 11 10 11 12 13 13 12 12 12 12 12 14 13 13 13 13 12 12 12 12 13 11 13 21 22 16 17 20 24 24 20 17 18 15 13 14 18 3 3 16 22 24 25 26 26 24 22 23 21 22 14 10
8 10 13 11 10 11 10 11 11 12 11 11 12 13 13 14 13 13 13 13 12 14 14 12 13 12 13 12 12 13 13 13 13 13 19 23 19 21 24 24 23 21 22 24 18 13 11 14 14 19 23 25 25 25 25 26 25 25 25 26 21 11
12 11 11 10 10 10 10 11 12 11 11 12 13 13 14 15 15 15 13 13 13 13 15 13 12 13 13 14 14 13 13 14 14 15 12 13 18 20 22 24 24 23 23 24 24 23 18 17 18 23 25 27 28 27 26 26 27 27 27 28 16 12
9 9 10 10 11 11 10 12 13 11 11 11 12 14 16 16 17 17 14 13 14 13 12 14 14 13 13 13 13 14 14 14 14 13 12 10 10 11 15 21 26 25 24 26 26 24 23 21 21 23 25 26 27 28 28 26 21 27 29 25 14 12
9 9 11 12 10 10 11 12 13 9 9 11 13 14 15 15 16 14 16 21 15 12 13 13 13 13 13 12 13 13 13 13 12 11 11 12 14 15 15 14 17 22 24 19 20 24 25 24 23 24 25 27 28 29 28 26 15 16 16 17 12 11
10 11 10 9 9 10 11 13 11 7 9 11 13 14 15 16 15 15 13 13 15 13 11 12 12 13 13 13 13 13 12 11 11 12 12 12 13 13 13 11 12 12 17 24 20 22 24 26 26 25 27 27 29 29 30 17 14 14 14 14 13 13
Wind_Direction
179 176 172 174 173 177 177 169 168 170 170 170 169 168 170 165 162 158 160 162 159 159 152 152 151 147 137 132 134 134 135 135 137 141 140 141 141 136 137 131 125 129 126 118 110 103 100 97 100 100 99 102 106 104 106 104 105 101 93 81 83 82
172 169 169 174 173 173 174 171 169 173 170 167 166 165 166 167 169 167 163 152 154 157 139 142 139 144 148 152 148 151 150 149 147 145 152 154 145 133 132 132 135 129 121 117 110 105 101 104 102 104 105 103 104 112 110 110 104 95 89 82 76 87
165 164 164 164 163 170 172 175 174 171 168 172 172 172 173 174 164 163 160 165 159 147 154 153 148 149 151 149 155 145 152 153 147 145 135 129 146 148 143 136 131 127 126 118 112 113 115 116 116 115 116 111 108 100 104 101 97 98 97 97 91 91
158 156 155 159 164 172 174 174 174 176 177 176 174 175 177 164 168 174 171 170 166 162 156 147 158 153 158 149 143 134 144 143 141 132 131 142 147 154 145 134 133 127 123 118 116 118 119 117 120 125 122 119 114 105 100 101 104 107 110 107 103 99
158 159 161 165 170 171 173 177 180 179 178 176 179 179 181 179 174 170 170 168 168 167 161 156 160 161 160 155 147 140 155 134 140 128 129 141 141 146 146 139 132 128 122 120 123 124 125 127 125 125 123 122 120 117 111 114 120 121 120 115 111 106
154 158 165 169 173 177 179 179 180 182 183 180 179 183 177 176 175 171 169 167 165 163 159 160 156 156 156 159 157 143 130 136 130 145 129 132 136 138 140 135 132 126 127 129 131 133 135 136 133 129 128 128 128 126 125 123 122 123 123 121 115 106
166 169 169 172 173 175 178 179 184 184 183 182 183 181 178 174 172 168 169 163 161 164 164 164 163 161 161 160 159 159 155 159 155 153 136 142 139 138 137 135 132 132 137 141 145 145 146 146 143 136 134 131 131 130 128 127 125 124 121 118 115 107
166 166 171 172 175 177 178 181 186 187 185 186 183 177 174 177 169 170 166 166 167 170 169 169 167 166 164 163 164 163 162 160 159 151 136 149 146 144 143 141 145 146 146 145 148 149 149 148 145 144 143 143 138 131 129 128 124 125 122 116 107 103
175 172 170 174 174 178 182 183 186 187 185 184 183 179 177 173 169 170 170 170 172 170 173 171 172 168 167 167 164 161 162 164 160 157 158 159 152 149 148 150 146 151 148 150 149 154 154 151 148 149 149 145 140 134 133 130 129 126 121 109 104 95
169 174 175 176 179 180 185 187 189 188 186 184 182 178 175 174 172 172 174 173 173 175 173 173 170 170 171 166 163 163 163 161 160 159 154 153 155 155 155 156 154 151 151 154 155 156 153 151 152 152 150 144 142 139 136 140 136 129 111 104 97 106
180 179 180 182 178 182 183 186 191 192 190 183 178 175 179 174 172 174 176 176 178 177 171 168 171 169 168 168 166 165 167 166 160 155 156 157 157 156 157 154 151 150 152 155 157 159 158 159 163 160 155 150 147 141 143 141 136 130 125 116 119 122
186 189 185 184 184 182 184 187 191 191 187 183 179 179 178 170 179 177 178 180 180 171 166 172 172 172 169 172 174 171 167 163 159 160 161 162 161 159 159 156 156 158 161 162 166 166 166 169 167 170 165 163 156 150 149 135 134 136 144 143 134 128
189 188 190 190 188 188 186 189 191 190 190 184 178 179 177 174 177 179 180 182 176 157 156 159 174 172 175 176 172 170 167 164 163 162 163 164 166 166 165 162 165 169 170 172 172 174 174 173 176 179 179 176 168 154 148 149 148 150 152 152 147 145
191 189 189 189 191 191 191 191 190 187 190 183 182 178 170 176 180 183 183 181 171 165 167 169 173 176 177 173 176 173 170 165 163 167 169 168 170 171 167 174 176 174 175 176 179 180 180 177 184 185 184 179 174 165 157 154 161 156 161 155 155 154
196 194 192 190 190 190 194 189 185 192 188 183 180 166 174 182 181 165 163 162 161 170 170 169 169 178 177 179 175 172 169 170 170 171 174 179 176 168 178 181 177 182 180 180 182 185 182 179 189 191 186 182 175 169 163 162 163 162 158 155 154 156
195 196 194 194 193 193 188 188 193 189 178 173 165 174 179 183 182 178 177 173 172 169 170 167 172 181 181 177 175 175 176 177 180 179 177 173 174 181 180 182 186 183 185 186 185 184 183 181 197 193 188 185 181 175 163 167 163 164 161 155 158 155
195 192 192 193 188 183 179 187 186 174 172 175 178 183 182 180 155 179 175 178 175 170 171 168 178 181 180 179 180 181 183 182 179 179 182 181 182 183 185 184 187 189 186 186 183 183 185 189 199 195 190 187 186 185 172 158 163 163 165 165 161 164
195 193 195 186 178 183 185 188 178 175 184 177 183 184 187 187 186 185 182 185 182 184 186 181 175 184 182 182 183 185 187 186 185 184 180 180 184 188 183 188 181 181 185 183 183 183 190 192 200 197 192 189 189 189 171 158 167 168 169 176 172 180
194 194 181 179 187 187 193 187 181 184 180 183 188 185 188 188 194 195 193 193 189 188 185 185 183 187 186 184 185 190 190 188 189 187 180 180 177 175 184 184 180 177 171 183 184 183 187 191 200 197 194 193 193 188 145 161 161 169 175 180 184 178
187 181 179 184 188 191 185 179 179 182 185 188 187 187 193 195 201 196 194 193 188 188 188 189 188 188 187 187 192 193 193 192 191 190 184 182 170 180 180 156 166 178 183 188 187 188 181 185 198 198 197 196 197 177 159 159 165 170 180 182 181 173
183 181 180 182 190 190 182 179 179 183 190 189 190 194 198 203 201 194 194 193 189 191 190 190 190 191 191 194 196 193 192 193 193 189 181 190 187 181 163 181 186 179 192 191 188 189 190 178 195 201 200 198 198 180 155 160 171 175 186 185 175 175
156 165 180 187 195 183 179 177 181 189 193 194 192 199 206 204 197 193 193 192 191 190 190 192 194 196 196 198 196 194 197 189 182 186 186 189 190 188 187 188 194 182 182 182 190 188 190 182 190 205 203 199 198 181 159 162 175 188 191 187 183 175
175 183 188 193 187 179 179 178 183 194 196 194 199 209 207 195 187 192 193 190 190 192 193 194 196 198 200 197 196 193 190 187 190 186 188 187 187 187 189 191 193 195 197 195 197 190 190 191 183 204 206 201 198 190 171 180 184 182 178 181 184 183
188 190 195 191 181 178 178 180 188 195 195 199 210 212 194 188 192 191 191 192 194 194 195 196 198 198 198 194 189 189 194 194 192 192 189 186 187 189 192 190 192 194 195 197 196 200 200 196 195 193 208 203 200 199 188 182 185 177 167 184 183 185
192 196 192 184 179 180 182 183 192 196 198 206 215 201 188 191 189 189 191 194 195 196 196 196 194 195 194 194 192 192 195 189 190 191 185 187 188 190 192 192 192 191 195 196 199 201 200 195 195 195 203 206 203 203 197 187 179 191 178 180 174 186
194 197 192 182 182 181 183 185 196 200 205 218 212 186 187 187 190 188 192 195 197 196 196 195 195 196 196 194 190 193 193 191 190 189 190 189 190 191 193 195 192 193 196 197 200 199 197 194 192 199 202 206 205 203 201 195 188 191 179 186 180 174
197 191 187 188 184 186 187 191 194 199 210 218 190 192 183 187 187 190 196 197 196 197 196 193 195 195 196 194 189 192 193 192 186 191 193 189 194 195 196 197 192 197 199 198 201 172 187 192 193 197 204 203 207 204 204 202 196 198 188 190 187 188
202 187 197 199 192 191 191 195 195 199 215 206 189 188 184 183 187 192 198 197 197 197 190 194 198 197 197 194 195 197 194 192 190 194 191 191 197 198 198 198 196 200 200 201 198 195 195 190 190 196 197 198 205 207 207 205 200 199 199 185 185 188
200 209 206 207 204 200 200 199 203 211 212 194 190 184 183 184 189 195 196 197 197 194 192 196 197 196 196 197 198 198 197 196 194 195 194 195 197 198 199 200 198 198 199 201 199 194 190 192 192 191 189 193 197 202 203 203 205 197 197 184 184 190
206 213 211 217 210 204 206 208 211 214 210 197 185 183 182 189 192 195 196 196 194 195 195 199 198 194 197 199 197 197 200 200 197 197 200 197 197 195 200 199 199 199 198 200 195 188 186 193 192 193 190 192 193 194 191 197 194 190 186 184 178 180
208 215 213 223 212 205 209 215 217 217 212 203 189 181 185 193 195 195 197 195 195 200 197 200 198 199 199 200 202 207 202 197 197 203 210 210 201 199 196 197 202 202 201 197 191 184 191 195 201 202 194 194 186 182 182 188 191 186 186 180 164 136
209 213 217 224 206 202 209 216 218 216 211 201 191 184 191 195 192 197 201 197 198 201 196 199 201 201 203 202 204 206 216 219 213 209 206 209 206 207 209 202 204 198 193 196 202 193 192 196 203 196 194 190 187 188 188 188 187 190 176 168 162 148
215 220 226 226 208 209 211 213 213 211 206 195 190 187 195 190 194 202 206 199 204 200 197 198 201 202 203 204 203 204 209 212 218 219 218 216 206 206 209 210 211 199 197 195 199 204 212 222 143 190 191 190 189 187 188 189 190 192 183 174 152 154
215 215 224 224 212 215 215 218 217 210 202 192 190 190 193 193 194 202 205 204 206 202 200 201 202 199 200 205 203 203 203 208 212 221 220 216 208 205 208 211 210 204 197 200 200 191 202 202 186 185 187 188 188 187 187 188 189 192 185 186 168 171
214 216 220 221 213 214 216 217 224 210 198 191 189 187 194 197 200 205 206 204 204 203 201 201 201 202 201 203 202 205 204 206 209 213 214 214 212 208 208 210 211 207 201 199 200 197 193 191 183 183 184 186 189 188 188 187 189 190 188 187 182 187
218 218 219 220 214 211 212 219 226 211 196 188 187 189 197 200 203 206 206 203 202 199 199 202 204 202 203 204 204 205 206 210 210 212 205 194 194 208 214 214 212 209 204 201 199 197 194 191 186 186 187 188 187 189 189 187 189 192 192 190 191 185
219 223 223 219 216 212 216 224 229 210 187 186 187 192 200 205 207 210 214 211 202 200 203 202 204 204 204 202 204 206 206 210 209 207 202 198 198 200 203 204 208 209 203 200 199 198 192 189 187 188 188 189 190 189 186 183 183 191 197 198 198 193
221 228 226 219 216 216 219 230 230 201 183 186 188 194 202 206 208 210 211 213 209 206 205 204 204 203 203 203 205 204 204 202 201 203 208 207 206 205 205 208 206 204 205 200 198 196 193 189 190 190 190 191 188 187 181 182 187 189 196 196 195 194